Regional Weather Roundup
Issued by NWS

Home | Current Version | Previous Version | Graphics & Text | Print | Product List | Glossary On
Versions: 1 2 3 4 5 6 7 8 9 10 11 12 13 14 15 16 17 18 19 20 21 22 23 24 25 26 27 28 29 30 31 32 33 34 35 36 37 38 39 40 41 42 43 44 45 46 47 48 49 50
000
ASUS45 KCYS 022310
RWRWY

WYOMING REGIONAL WEATHER ROUNDUP
NATIONAL WEATHER SERVICE CHEYENNE WY
500 PM MDT THU JUL 02 2015

NOTE:  "FAIR" INDICATES FEW OR NO CLOUDS BELOW 12,000 FEET
WITH NO SIGNIFICANT WEATHER AND/OR OBSTRUCTIONS TO VISIBILITY.

WYZ001-030000-
YELLOWSTONE NATIONAL PARK

CITY           SKY/WX    TMP DP  RH WIND       PRES   REMARKS
LK YELLOWSTONE   N/A     75  35  23 CALM      30.32S
W YELLOWSTONE  NOT AVBL

$$
WYZ002>013-054>058-071-098>099-030000-
NORTHERN WYOMING

CITY           SKY/WX    TMP DP  RH WIND       PRES   REMARKS
JACKSON        FAIR      86  28  12 NW8       30.18F
CODY           FAIR      81  50  34 N15       30.16F
GREYBULL       FAIR      89  48  24 N14G21    30.04F
WORLAND        FAIR      90  42  18 NE7       30.06F
SHERIDAN       PTSUNNY   80  53  39 N8        30.12F
BUFFALO        LGT RAIN  74  56  53 NW12      30.19F
GILLETTE       FAIR      77  54  44 NE14      30.14F
HULETT         FAIR      73  54  49 N8        30.15F
NEWCASTLE      FAIR      77  46  33 MISG      30.13F

$$
WYZ014>020-022>026-101>103-030000-
CENTRAL WYOMING

CITY           SKY/WX    TMP DP  RH WIND       PRES   REMARKS
BIG PINEY      FAIR      84  45  25 SW8       30.22F
PINEDALE       FAIR      82  36  18 NW13G20   30.22F
DUBOIS         FAIR      77  45  31 SE20G25   30.24S
LANDER         FAIR      83  51  33 N7        30.14F
RIVERTON       FAIR      84  48  28 NE12G17   30.15F
CASPER         FAIR      86  47  25 NE12      30.14F
DOUGLAS        FAIR      81  54  39 N12       30.16F

$$
WYZ021-027>030-104>119-030000-
SOUTHERN WYOMING

CITY           SKY/WX    TMP DP  RH WIND       PRES   REMARKS
EVANSTON       FAIR      85  39  19 CALM      30.23F
KEMMERER       FAIR      86  36  16 NW10      30.24F
FORT BRIDGER   CLEAR     91  30  11 N7G18     30.24F
ROCK SPRINGS   FAIR      87  43  21 NW7       30.18F
DIXON          FAIR      87  42  20 NW10      30.19F
RAWLINS        FAIR      78  51  38 E7        30.22F
SARATOGA       FAIR      77  46  33 N7        30.25F
LARAMIE        LGT RAIN  66  50  56 E13       30.28R
CHEYENNE       FAIR      75  50  41 NE8       30.21S
TORRINGTON     PTSUNNY   80  55  42 NE15      30.09F
PINE BLUFFS    FAIR      79  50  36 NE8       30.16F

$$


USA.gov is the U.S. government's official web portal to all federal, state and local government web resources and services.